N5OSI Weather Reports


time (UTC)temp
F
wind
direction
speed
knots
gust
knots
rain 1hr
in
rain 24hr
in
rain mn
in
humidity
%
barometer
mb
20260510045004 67 0 0.0 0.0 0.00 0.00 0.00 78 1002.9
20260510044003 67 0 0.0 0.0 0.00 0.00 0.00 77 1002.7
20260510043504 67 0 0.0 0.0 0.00 0.00 0.00 77 1002.8
20260510043003 67 0 0.0 0.0 0.00 0.00 0.00 77 1002.8
20260510042504 67 0 0.0 0.0 0.00 0.00 0.00 76 1002.7
20260510042003 67 0 0.0 0.0 0.00 0.00 0.00 76 1002.7
20260510041004 68 0 0.0 0.0 0.00 0.01 0.00 76 1002.6
20260510040503 68 0 0.0 0.0 0.00 0.02 0.00 76 1002.7
20260510040004 68 0 0.0 0.0 0.00 0.03 0.00 75 1002.5
20260510035503 68 0 0.0 0.0 0.00 0.04 0.00 75 1002.4
20260510035003 68 0 0.0 0.0 0.00 0.06 0.00 75 1002.4
20260510034504 68 0 0.0 0.0 0.00 0.08 0.00 75 1002.4
20260510034003 68 0 0.0 0.0 0.00 0.09 0.00 74 1002.3
20260510033504 68 0 0.0 0.0 0.00 0.10 0.00 73 1002.3
20260510033004 68 0 0.0 0.0 0.00 0.11 0.00 73 1002.3
20260510032503 68 0 0.0 0.0 0.00 0.12 0.00 73 1002.2
20260510031503 68 0 0.0 0.0 0.00 0.12 0.00 72 1002.2
20260510031004 68 0 0.0 0.0 0.00 0.12 0.00 72 1002.2
20260510030503 68 0 0.0 0.0 0.00 0.12 0.00 71 1002.2
20260510025504 68 0 0.0 0.0 0.00 0.12 0.00 70 1002.0
20260510025003 69 0 0.0 0.0 0.00 0.12 0.00 70 1002.0
20260510024504 69 0 0.0 0.0 0.00 0.12 0.00 69 1001.9
20260510024003 69 0 0.0 0.0 0.00 0.12 0.00 69 1001.8
20260510023503 69 0 0.0 0.0 0.00 0.12 0.00 68 1001.7
20260510022503 69 0 0.0 0.0 0.00 0.12 0.00 68 1001.5
20260510022003 69 0 0.0 0.0 0.00 0.12 0.00 69 1001.4
20260510021503 69 0 0.0 0.0 0.00 0.12 0.00 67 1001.4
20260510020504 70 0 0.0 0.0 0.00 0.12 0.00 66 1001.2
20260510020004 70 0 0.0 0.0 0.00 0.12 0.00 66 1001.1
20260510015503 70 0 0.0 0.0 0.00 0.12 0.00 65 1000.9
20260510015004 70 0 0.0 0.0 0.00 0.12 0.00 64 1000.9
20260510014503 70 0 0.0 0.0 0.00 0.12 0.00 64 1000.8
20260510014003 71 0 0.0 0.0 0.00 0.12 0.00 63 1000.7
20260510013503 71 0 0.0 0.0 0.00 0.12 0.00 63 1000.7
20260510013003 71 0 0.0 0.0 0.00 0.12 0.00 63 1000.7
20260510012003 72 0 0.0 0.0 0.00 0.12 0.00 62 1000.5
20260510011003 73 0 0.0 0.0 0.00 0.12 0.00 61 1000.4
20260510010503 73 0 0.0 0.0 0.00 0.12 0.00 60 1000.4
20260510010004 74 0 0.0 0.0 0.00 0.12 0.00 60 1000.4
20260510005503 74 0 0.0 0.0 0.00 0.12 0.00 60 1000.4
20260510005003 74 0 0.0 0.0 0.00 0.12 0.00 60 1000.4
20260510004504 75 0 0.0 0.0 0.00 0.12 0.00 59 1000.2
20260510004003 76 0 0.0 0.0 0.00 0.12 0.00 59 1000.2
20260510003504 76 0 0.0 0.0 0.00 0.12 0.00 58 1000.3
20260510003004 76 0 0.0 0.0 0.00 0.12 0.00 57 1000.2
20260510002503 77 0 0.0 0.0 0.00 0.12 0.00 56 1000.2
20260510002004 77 0 0.0 0.0 0.00 0.12 0.00 55 1000.1
20260510001503 78 0 0.0 0.0 0.00 0.12 0.00 53 1000.0
20260510001004 78 0 0.0 0.0 0.00 0.12 0.00 52 1000.1
20260510000503 79 0 0.0 0.0 0.00 0.12 0.00 51 1000.1
20260510000004 79 0 0.0 0.0 0.00 0.12 0.00 50 1000.1
20260509235503 80 0 0.0 0.0 0.00 0.12 0.00 51 1000.1
20260509235003 80 0 0.0 0.0 0.00 0.12 0.00 47 1000.0
20260509234504 81 0 0.0 0.0 0.00 0.12 0.00 46 1000.0
20260509234003 81 0 0.0 0.0 0.00 0.12 0.00 46 1000.0
20260509233503 82 0 0.0 0.0 0.00 0.12 0.00 46 1000.0
20260509232004 83 0 0.0 0.0 0.00 0.12 0.00 45 1000.0
20260509231503 83 201 0.0 2.6 0.00 0.12 0.00 45 999.9
20260509230503 84 0 0.0 0.0 0.00 0.12 0.00 50 1000.0
20260509230004 84 105 0.0 1.7 0.00 0.12 0.00 40 999.9
20260509225003 84 0 0.0 0.0 0.00 0.12 0.00 40 999.9
20260509224004 85 101 0.0 5.2 0.00 0.12 0.00 39 999.9
20260509223503 85 110 0.9 5.2 0.00 0.12 0.00 39 999.9
20260509223004 85 112 0.9 5.2 0.00 0.12 0.00 37 999.8
20260509222503 86 269 0.0 1.7 0.00 0.12 0.00 39 999.8
20260509222004 86 289 0.0 1.7 0.00 0.12 0.00 37 999.8
20260509221503 87 290 0.0 1.7 0.00 0.12 0.00 39 999.8
20260509221004 87 265 0.0 1.7 0.00 0.12 0.00 39 999.7
20260509220503 87 248 0.0 1.7 0.00 0.12 0.00 38 999.7
20260509215503 86 137 0.9 2.6 0.00 0.12 0.00 40 999.7
20260509215003 86 224 0.0 2.6 0.00 0.12 0.00 41 999.8
20260509214504 86 112 0.9 2.6 0.00 0.12 0.00 40 999.8
20260509214003 85 75 0.9 2.6 0.00 0.12 0.00 41 999.8
20260509213004 85 88 0.9 2.6 0.00 0.12 0.00 42 999.8
20260509212503 85 96 0.9 2.6 0.00 0.12 0.00 43 999.9
20260509211503 85 83 0.9 4.3 0.00 0.12 0.00 44 1000.0
20260509211004 86 93 0.9 2.6 0.00 0.12 0.00 43 1000.0
20260509210503 86 95 0.9 4.3 0.00 0.12 0.00 43 1000.0
20260509210004 86 86 0.9 4.3 0.00 0.12 0.00 43 1000.0
20260509205503 87 0 0.0 0.0 0.00 0.12 0.00 45 1000.1
20260509205003 87 0 0.0 0.0 0.00 0.12 0.00 45 1000.1
20260509204504 86 0 0.0 0.0 0.00 0.12 0.00 46 1000.1
20260509204003 86 99 0.0 1.7 0.00 0.12 0.00 45 1000.1
20260509203504 86 98 0.9 2.6 0.00 0.12 0.00 47 1000.2
20260509203003 86 125 0.9 2.6 0.00 0.12 0.00 45 1000.3
20260509202504 86 244 0.9 2.6 0.00 0.12 0.00 46 1000.4
20260509202003 86 227 0.9 2.6 0.00 0.12 0.00 45 1000.4
20260509201504 85 121 0.9 2.6 0.00 0.12 0.00 44 1000.5
20260509201003 85 152 0.9 3.5 0.00 0.12 0.00 47 1000.6
20260509200503 85 139 0.9 3.5 0.00 0.12 0.00 48 1000.6
20260509200004 85 108 0.9 3.5 0.00 0.12 0.00 45 1000.6
20260509195003 85 161 0.9 1.7 0.00 0.12 0.00 46 1000.7
20260509194504 85 148 0.9 2.6 0.00 0.12 0.00 44 1000.7
20260509194003 85 91 0.9 2.6 0.00 0.12 0.00 47 1000.7
20260509193504 85 79 0.0 2.6 0.00 0.12 0.00 44 1000.7
20260509193003 85 255 0.9 6.1 0.00 0.12 0.00 44 1000.7
20260509192504 86 251 0.9 6.1 0.00 0.12 0.00 41 1000.8
20260509192003 85 238 0.9 1.7 0.00 0.12 0.00 45 1000.8
20260509190503 84 200 0.0 1.7 0.00 0.12 0.00 47 1001.1
20260509190004 84 140 0.9 1.7 0.00 0.12 0.00 47 1001.0
20260509185003 83 95 0.0 1.7 0.00 0.12 0.00 46 1001.0
20260509184504 83 184 0.0 2.6 0.00 0.12 0.00 50 1001.2
20260509184003 83 142 0.0 2.6 0.00 0.12 0.00 46 1001.2
20260509183504 82 142 0.0 1.7 0.00 0.12 0.00 47 1001.3
20260509183003 83 170 0.0 1.7 0.00 0.12 0.00 47 1001.3
20260509182504 83 213 0.0 2.6 0.00 0.12 0.00 52 1001.3
20260509182003 83 212 0.0 2.6 0.00 0.12 0.00 55 1001.4
20260509181004 82 239 0.0 1.7 0.00 0.12 0.00 61 1001.5
20260509180503 82 213 0.0 2.6 0.00 0.12 0.00 62 1001.5
20260509180004 82 205 0.9 2.6 0.00 0.12 0.00 61 1001.6
20260509175503 81 179 0.9 2.6 0.00 0.12 0.00 62 1001.5
20260509175003 81 209 0.9 2.6 0.00 0.12 0.00 60 1001.5
20260509174504 81 250 0.9 2.6 0.00 0.12 0.00 63 1001.6
20260509174003 80 240 0.9 2.6 0.00 0.12 0.00 64 1001.6
20260509173504 80 235 0.9 3.5 0.00 0.12 0.00 63 1001.6
20260509172504 79 247 0.9 3.5 0.00 0.12 0.00 64 1001.6
20260509172003 79 256 0.0 3.5 0.00 0.12 0.00 65 1001.6
20260509171503 79 286 0.0 1.7 0.00 0.12 0.00 66 1001.6
20260509171003 79 277 0.0 2.6 0.00 0.12 0.00 67 1001.6
20260509170504 79 224 0.0 2.6 0.00 0.12 0.00 67 1001.6
20260509170003 79 214 0.0 1.7 0.00 0.12 0.00 69 1001.7
20260509165504 78 102 0.0 2.6 0.00 0.12 0.00 73 1001.7
20260509165003 78 228 0.9 3.5 0.00 0.12 0.00 69 1001.7
20260509164504 78 247 0.9 3.5 0.00 0.12 0.00 71 1001.7
20260509164003 77 255 0.9 2.6 0.00 0.12 0.00 71 1001.8
20260509163503 77 259 0.9 2.6 0.00 0.12 0.00 74 1001.8
20260509163004 76 255 0.0 2.6 0.00 0.12 0.00 74 1001.8
20260509162503 76 147 0.0 1.7 0.00 0.12 0.00 75 1001.7
20260509162004 75 266 0.0 1.7 0.00 0.12 0.00 76 1001.8
20260509161503 75 268 0.0 1.7 0.00 0.12 0.00 76 1001.8
20260509161004 75 269 0.0 1.7 0.00 0.12 0.00 78 1001.8
20260509160503 75 259 0.0 0.9 0.00 0.12 0.00 82 1001.8
20260509160004 74 263 0.0 2.6 0.00 0.12 0.00 78 1001.8
20260509155503 74 260 0.0 2.6 0.00 0.12 0.00 78 1001.8
20260509155003 73 254 0.0 1.7 0.00 0.12 0.00 81 1001.8
20260509154504 73 256 0.0 1.7 0.00 0.12 0.00 82 1001.9
20260509154003 72 256 0.9 2.6 0.00 0.12 0.00 83 1001.9
20260509153003 71 254 0.0 1.7 0.00 0.12 0.00 84 1001.8
20260509152503 70 218 0.0 0.9 0.00 0.12 0.00 85 1001.8
20260509152003 70 0 0.0 0.0 0.00 0.12 0.00 85 1001.8
20260509151503 69 0 0.0 0.0 0.00 0.12 0.00 88 1001.8
20260509151003 69 0 0.0 0.0 0.00 0.12 0.00 87 1001.9
20260509150503 68 0 0.0 0.0 0.00 0.12 0.00 87 1002.0
20260509150004 68 0 0.0 0.0 0.00 0.12 0.00 87 1001.9
20260509145503 67 0 0.0 0.0 0.00 0.12 0.00 89 1002.0
20260509145004 67 0 0.0 0.0 0.00 0.12 0.00 89 1002.0
20260509144503 67 265 0.0 1.7 0.00 0.12 0.00 90 1002.0
20260509144003 66 265 0.0 2.6 0.00 0.12 0.00 90 1002.2
20260509143504 66 265 0.0 2.6 0.00 0.12 0.00 91 1002.3
20260509143003 66 0 0.0 0.0 0.00 0.12 0.00 92 1002.3
20260509142504 65 0 0.0 0.0 0.00 0.12 0.00 93 1002.2
20260509141503 64 0 0.0 0.0 0.00 0.12 0.00 92 1002.2
20260509141003 64 269 0.0 2.6 0.00 0.12 0.00 93 1002.3
20260509140503 64 267 0.0 2.6 0.00 0.12 0.00 93 1002.3
20260509135503 63 244 0.0 1.7 0.00 0.12 0.00 94 1002.2
20260509135003 63 0 0.0 0.0 0.00 0.12 0.00 93 1002.2
20260509134504 63 239 0.0 1.7 0.00 0.12 0.00 94 1002.2
20260509134003 63 239 0.0 1.7 0.00 0.12 0.00 94 1002.2
20260509133504 62 238 0.0 0.9 0.00 0.12 0.00 93 1002.3
20260509133004 62 238 0.0 0.9 0.00 0.12 0.00 94 1002.2
20260509132503 62 0 0.0 0.0 0.00 0.12 0.00 93 1002.1
20260509132003 62 238 0.0 0.9 0.00 0.12 0.00 94 1002.0
20260509131504 62 238 0.0 0.9 0.00 0.12 0.00 94 1002.0
20260509131003 62 238 0.0 0.9 0.00 0.12 0.00 94 1002.0
20260509130503 62 238 0.0 0.9 0.00 0.12 0.00 94 1001.9
20260509130004 62 0 0.0 0.0 0.00 0.12 0.00 94 1001.8
20260509125503 61 0 0.0 0.0 0.00 0.12 0.00 94 1001.8
20260509125004 61 0 0.0 0.0 0.00 0.12 0.00 94 1001.8
20260509124503 61 0 0.0 0.0 0.00 0.12 0.00 93 1001.8
20260509124003 60 0 0.0 0.0 0.00 0.12 0.00 93 1001.7
20260509123503 60 0 0.0 0.0 0.00 0.12 0.00 93 1001.5
20260509123003 60 0 0.0 0.0 0.00 0.12 0.00 93 1001.5
20260509122504 60 0 0.0 0.0 0.00 0.12 0.00 93 1001.4
20260509122003 60 0 0.0 0.0 0.00 0.12 0.00 93 1001.3
20260509121504 60 0 0.0 0.0 0.00 0.12 0.00 93 1001.2
20260509121003 60 0 0.0 0.0 0.00 0.12 0.00 92 1001.1
20260509120503 60 0 0.0 0.0 0.00 0.12 0.00 92 1001.2
20260509120004 60 0 0.0 0.0 0.00 0.12 0.00 92 1001.2
20260509115003 60 0 0.0 0.0 0.00 0.12 0.00 92 1001.0
20260509114503 60 0 0.0 0.0 0.00 0.12 0.00 92 1001.0
20260509114003 60 0 0.0 0.0 0.00 0.12 0.00 92 1000.9
20260509113503 60 0 0.0 0.0 0.00 0.12 0.00 92 1000.9
20260509112504 60 0 0.0 0.0 0.00 0.12 0.00 92 1000.7
20260509112003 60 0 0.0 0.0 0.00 0.12 0.00 92 1000.7
20260509111503 61 0 0.0 0.0 0.00 0.12 0.00 92 1000.6
20260509111003 61 0 0.0 0.0 0.00 0.12 0.00 92 1000.6
20260509110503 61 0 0.0 0.0 0.00 0.12 0.00 92 1000.5
20260509110004 61 0 0.0 0.0 0.00 0.12 0.00 92 1000.5
20260509105503 61 0 0.0 0.0 0.00 0.12 0.00 92 1000.4
20260509105004 61 0 0.0 0.0 0.00 0.12 0.00 92 1000.4
20260509104503 61 0 0.0 0.0 0.00 0.12 0.00 92 1000.4
20260509104004 61 0 0.0 0.0 0.00 0.12 0.00 92 1000.2
20260509103504 61 0 0.0 0.0 0.00 0.12 0.00 92 1000.2
20260509102504 61 0 0.0 0.0 0.00 0.12 0.00 92 1000.3
20260509101503 61 0 0.0 0.0 0.00 0.12 0.00 92 1000.2
20260509101004 61 0 0.0 0.0 0.00 0.12 0.00 92 1000.2
20260509100503 61 0 0.0 0.0 0.00 0.12 0.00 92 1000.2
20260509100005 62 0 0.0 0.0 0.00 0.12 0.00 92 1000.2
20260509095503 62 0 0.0 0.0 0.00 0.12 0.00 92 1000.2
20260509095003 62 0 0.0 0.0 0.00 0.12 0.00 92 1000.2
20260509094504 62 0 0.0 0.0 0.00 0.12 0.00 92 1000.2
20260509094003 62 0 0.0 0.0 0.00 0.12 0.00 92 1000.2
20260509093503 62 0 0.0 0.0 0.00 0.12 0.00 92 1000.2
20260509092503 62 0 0.0 0.0 0.00 0.12 0.00 92 1000.1
20260509092004 62 0 0.0 0.0 0.00 0.12 0.00 92 1000.1
20260509091003 62 0 0.0 0.0 0.00 0.12 0.00 92 1000.2
20260509090504 62 0 0.0 0.0 0.00 0.12 0.00 92 1000.2
20260509090003 62 0 0.0 0.0 0.00 0.12 0.00 92 1000.3
20260509085504 62 0 0.0 0.0 0.00 0.12 0.00 92 1000.3
20260509085003 62 0 0.0 0.0 0.00 0.12 0.00 92 1000.3
20260509083503 62 238 0.0 0.9 0.00 0.12 0.00 92 1000.4
20260509083004 62 238 0.0 0.9 0.00 0.12 0.00 92 1000.5
20260509082503 62 238 0.0 1.7 0.00 0.12 0.00 92 1000.5
20260509082003 62 238 0.0 1.7 0.00 0.12 0.00 92 1000.6
20260509081504 62 0 0.0 0.0 0.00 0.12 0.00 92 1000.6
20260509081004 62 0 0.0 0.0 0.00 0.12 0.00 92 1000.6
20260509080503 62 0 0.0 0.0 0.00 0.12 0.00 92 1000.7
20260509080004 62 0 0.0 0.0 0.00 0.12 0.00 91 1000.7
20260509075503 62 0 0.0 0.0 0.00 0.12 0.00 91 1000.8
20260509075004 62 0 0.0 0.0 0.00 0.12 0.00 91 1000.8
20260509074503 62 0 0.0 0.0 0.00 0.12 0.00 91 1000.8
20260509073504 62 0 0.0 0.0 0.00 0.12 0.00 91 1001.0
20260509072503 62 0 0.0 0.0 0.00 0.12 0.00 91 1000.9
20260509072003 62 0 0.0 0.0 0.00 0.12 0.00 91 1000.8
20260509071504 62 0 0.0 0.0 0.00 0.12 0.00 91 1000.9
20260509071004 62 0 0.0 0.0 0.00 0.12 0.00 91 1000.9
20260509070503 62 0 0.0 0.0 0.00 0.12 0.00 91 1000.8
20260509070004 62 0 0.0 0.0 0.00 0.12 0.00 91 1000.7
20260509065503 62 0 0.0 0.0 0.00 0.12 0.00 91 1000.6
20260509065003 62 0 0.0 0.0 0.00 0.12 0.00 91 1000.6
20260509064003 62 238 0.0 0.9 0.00 0.12 0.00 91 1000.4
20260509063503 62 238 0.0 0.9 0.00 0.12 0.00 91 1000.5
20260509063004 62 238 0.0 0.9 0.00 0.12 0.00 91 1000.5
20260509062503 62 238 0.0 0.9 0.00 0.12 0.00 90 1000.4
20260509062003 62 0 0.0 0.0 0.00 0.12 0.00 90 1000.4
20260509061003 62 0 0.0 0.0 0.00 0.12 0.00 90 1000.4
20260509060504 62 0 0.0 0.0 0.00 0.12 0.00 89 1000.4
20260509060004 63 0 0.0 0.0 0.00 0.12 0.00 89 1000.6
20260509055504 63 0 0.0 0.0 0.00 0.12 0.00 89 1000.6
20260509054503 63 0 0.0 0.0 0.00 0.12 0.00 89 1000.6
20260509054003 63 0 0.0 0.0 0.00 0.12 0.00 89 1000.7
20260509053503 64 0 0.0 0.0 0.00 0.12 0.00 89 1000.6
20260509053004 64 238 0.0 0.9 0.00 0.12 0.00 89 1000.8
20260509052503 64 238 0.0 0.9 0.00 0.12 0.00 89 1000.9
20260509052003 64 0 0.0 0.0 0.00 0.12 0.00 89 1001.0
20260509051003 64 0 0.0 0.0 0.01 0.12 0.00 89 1000.5
20260509050503 64 0 0.0 0.0 0.02 0.12 0.00 89 1000.5
20260509045504 64 257 0.9 2.6 0.04 0.12 0.12 88 1000.7